Terminal Aerodrome Forecast
Issued by NWS Jackson, KY

Home | Current Version | Previous Version | Text Only | Print | Product List | Glossary On
Versions: 1 2 3 4 5 6 7 8 9 10 11 12 13 14 15 16 17 18 19 20 21 22 23
000
FTUS43 KJKL 052333
TAFLOZ
TAF
KLOZ 052333Z 0600/0624 VRB05KT P6SM SCT020 BKN045
     FM060300 VRB03KT 4SM BR SCT025
     FM060700 00000KT 1/2SM FG BKN002
     FM061500 VRB04KT P6SM BKN025=

USA.gov is the U.S. government's official web portal to all federal, state and local government web resources and services.